• Join FlightAware (Why Join?)
  • Login
  • US Flag GB Flag 
19:00 EDT


 

Airport Tracker/Info


-or-


 

Live Flight TrackerFlight Track Log ✈ SKW6335 ✈ 03-May-2013 ✈ KLAX - KSAN

Flight Track Log - Related Links

Times and Time Zones

All times are in EDT time to prevent confusion due to time zone crossing. See the SKW6335 flight status page for this flight to view local times or setup timezone preferences in your user account.

Time Position Orientation Groundspeed Altitude Reporting Facility
EDT Latitude Longitude Course Direction KTS MPH feet Rate Location/Type
17:55 33.9333 -118.4333 140° Southeast 160 184 1,600  Level Southern California TRACON
17:56 33.8833 -118.4833 220° Southwest 201 231 3,000 1,380 Climbing Southern California TRACON
17:57 33.8333 -118.4833 180° South 203 234 4,300 1,320 Climbing Southern California TRACON
17:57 33.8342 -118.4928 276° West 203 234 4,600 1,440 Climbing Los Angeles Center
17:58 33.6897 -118.1495 139° Southeast  Level Estimated
17:58 33.7717 -118.5108 194° South 201 231 6,300  Level Los Angeles Center
17:59 33.6266 -118.0847 139° Southeast  Level FlightAware Approximate
17:59 33.7267 -118.4722 144° Southeast 198 228 7,700  Level Los Angeles Center
18:00 33.5635 -118.0201 140° Southeast  Level FlightAware Approximate
18:00 33.6742 -118.4131 137° Southeast 222 255 8,600  Level Los Angeles Center
18:01 33.6381 -118.3467 123° Southeast 235 270 9,100 240 Climbing Los Angeles Center
18:02 33.5983 -118.2783 125° Southeast 246 283 9,100 -60 Level Los Angeles Center
18:03 33.5622 -118.2119 123° Southeast 245 282 9,000 -60 Descending Los Angeles Center
18:04 33.5206 -118.1333 122° Southeast 239 275 9,000  Level Los Angeles Center
18:05 33.4869 -118.0675 121° Southeast 236 272 9,000  Level Los Angeles Center
18:06 33.4542 -118.0017 121° Southeast 233 268 9,000  Level Los Angeles Center
18:07 33.4200 -117.9375 123° Southeast 231 266 9,000  Level Los Angeles Center
18:08 33.3839 -117.8750 125° Southeast 229 264 9,000  Level Los Angeles Center
18:10 33.3442 -117.8047 124° Southeast 235 270 9,000  Level Los Angeles Center
18:11 33.3042 -117.7331 124° Southeast 234 269 9,000  Level Los Angeles Center
18:12 33.2689 -117.6667 122° Southeast 236 272 9,000  Level Los Angeles Center
18:13 33.2350 -117.6000 121° Southeast 236 272 9,000  Level Los Angeles Center
18:13 33.2167 -117.5833 143° Southeast 235 270 9,000  Level Southern California TRACON
18:14 33.1833 -117.5000 116° Southeast 237 273 9,000 -300 Level Southern California TRACON
18:15 33.1500 -117.4333 121° Southeast 248 285 8,500 -480 Descending Southern California TRACON
18:16 33.1125 -117.3917 137° Southeast 246 283 8,200 -540 Descending Los Angeles Center
18:17 33.0433 -117.3611 160° South 257 296 7,600 -600 Descending Los Angeles Center
18:18 32.9667 -117.3333 163° South 258 297 7,000 -360 Descending Southern California TRACON
18:19 32.9000 -117.2833 148° Southeast 245 282 6,900 -60 Descending Southern California TRACON
18:20 32.8500 -117.2500 151° Southeast 237 273 6,900 -420 Level Southern California TRACON
18:21 32.8167 -117.1667 115° Southeast 249 287 6,100 -1,080 Descending Southern California TRACON
18:22 32.7833 -117.1167 128° Southeast 209 241 4,700 -1,920 Descending Southern California TRACON
18:23 32.7500 -117.1000 157° South 174 200 2,500 -2,400 Descending Southern California TRACON